CW6338 Weather Reports


Display with metric or nautical units.
time (UTC)temp
F
wind
direction
speed
MPH
gust
MPH
rain 1hr
in
rain 24hr
in
rain mn
in
humidity
%
barometer
mb
20260904094716 77 158 5.0 8.0 0.00 0.00 0.00 82 1014.2
20260904093716 77 158 3.0 5.0 0.00 0.00 0.00 82 1014.1
20260904092716 77 203 2.0 5.0 0.00 0.00 0.00 82 1014.1
20260904091716 77 158 3.0 5.0 0.00 0.00 0.00 81 1013.9
20260904090736 77 158 4.0 6.0 0.00 0.00 0.00 81 1013.7
20260904085716 77 180 3.0 6.0 0.00 0.00 0.00 81 1013.7
20260904084716 78 158 4.0 5.0 0.00 0.00 0.00 81 1013.6
20260904083716 78 158 1.0 4.0 0.00 0.00 0.00 80 1013.7
20260904082717 78 180 3.0 4.0 0.00 0.00 0.00 80 1013.6
20260904081716 78 135 4.0 5.0 0.00 0.00 0.00 80 1013.6
20260904080716 78 135 5.0 9.0 0.00 0.00 0.00 80 1013.5
20260904075716 78 135 4.0 7.0 0.00 0.00 0.00 80 1013.8
20260904074736 78 158 4.0 6.0 0.00 0.00 0.00 80 1013.7
20260904073716 78 135 4.0 6.0 0.00 0.00 0.00 80 1013.7
20260904072716 78 135 4.0 6.0 0.00 0.00 0.00 80 1013.8
20260904071716 78 135 5.0 7.0 0.00 0.00 0.00 80 1013.9
20260904070716 78 135 5.0 8.0 0.00 0.00 0.00 80 1014.0
20260904065716 78 135 5.0 7.0 0.00 0.00 0.00 81 1014.0
20260904064716 78 135 5.0 8.0 0.00 0.00 0.00 81 1014.2
20260904063716 78 0.0 0.0 0.00 0.00 0.00 81 1014.0
20260904062716 78 0.0 0.0 0.00 0.00 0.00 81 1014.1
20260904061716 78 0.0 0.0 0.00 0.00 0.00 81 1014.2
20260904060716 79 135 2.0 3.0 0.00 0.00 0.00 81 1014.1
20260904055715 79 158 3.0 5.0 0.00 0.00 0.00 81 1014.2
20260904054716 79 135 3.0 4.0 0.00 0.00 0.00 80 1014.3
20260904053716 79 158 2.0 4.0 0.00 0.00 0.00 80 1014.3
20260904052715 79 158 2.0 3.0 0.00 0.00 0.00 80 1014.3
20260904051715 79 135 3.0 5.0 0.00 0.00 0.00 80 1014.2
20260904050716 79 180 2.0 4.0 0.00 0.00 0.00 81 1014.1
20260904045716 79 135 3.0 4.0 0.00 0.00 0.00 81 1014.2
20260904044715 79 135 3.0 5.0 0.00 0.00 0.00 81 1014.1
20260904043755 79 135 2.0 2.0 0.00 0.00 0.00 82 1014.1
20260904042715 79 135 2.0 3.0 0.00 0.00 0.00 81 1014.0
20260904041716 79 135 2.0 4.0 0.00 0.00 0.00 81 1014.0
20260904040716 80 135 3.0 4.0 0.00 0.00 0.00 81 1014.1
20260904035715 81 135 2.0 3.0 0.00 0.00 0.00 80 1014.2
20260904034715 81 135 1.0 2.0 0.00 0.00 0.00 79 1014.2
20260904033715 81 0.0 0.0 0.00 0.00 0.00 78 1014.1
20260904032717 82 0.0 0.0 0.00 0.00 0.00 78 1013.9
20260904031715 82 135 3.0 4.0 0.00 0.00 0.00 78 1013.8
20260904030715 82 135 3.0 4.0 0.00 0.00 0.00 78 1013.7
20260904025735 82 158 3.0 4.0 0.00 0.00 0.00 77 1013.6
20260904024717 83 135 4.0 7.0 0.00 0.00 0.00 77 1013.5
20260904023717 83 158 3.0 4.0 0.00 0.00 0.00 77 1013.4
20260904022717 83 135 5.0 7.0 0.00 0.00 0.00 78 1013.3
20260904021720 83 158 3.0 4.0 0.00 0.00 0.00 78 1013.3
20260904020717 83 158 4.0 6.0 0.00 0.00 0.00 78 1013.1
20260904015717 83 158 4.0 6.0 0.00 0.00 0.00 78 1013.0
20260904014737 84 158 2.0 4.0 0.00 0.00 0.00 78 1013.1
20260904013717 84 158 3.0 4.0 0.00 0.00 0.00 78 1013.0
20260904012737 84 158 3.0 5.0 0.00 0.00 0.00 77 1012.8
20260904011718 85 158 4.0 5.0 0.00 0.00 0.00 76 1012.9
20260904010717 85 158 2.0 5.0 0.00 0.00 0.00 76 1012.8
20260904005717 86 158 3.0 4.0 0.00 0.00 0.00 76 1012.7
20260904004717 86 158 4.0 6.0 0.00 0.00 0.00 76 1012.6
20260904003717 87 135 2.0 3.0 0.00 0.00 0.00 75 1012.7
20260904002737 88 135 3.0 3.0 0.00 0.00 0.00 75 1012.7
20260904001717 88 158 2.0 4.0 0.00 0.00 0.00 73 1012.8
20260904000717 89 135 3.0 5.0 0.00 0.00 0.00 73 1012.7
20260903235717 90 158 3.0 4.0 0.00 0.00 0.00 72 1012.8
20260903234717 91 158 1.0 2.0 0.00 0.00 0.00 70 1013.0
20260903233717 91 158 1.0 2.0 0.00 0.00 0.00 68 1013.0
20260903232717 92 158 3.0 4.0 0.00 0.00 0.00 67 1013.1
20260903231717 92 158 3.0 4.0 0.00 0.00 0.00 65 1013.1
20260903230716 93 158 3.0 5.0 0.00 0.00 0.00 63 1013.2
20260903225717 93 158 3.0 4.0 0.00 0.00 0.00 62 1013.2
20260903224716 94 158 5.0 6.0 0.00 0.00 0.00 62 1013.2
20260903223717 94 158 2.0 4.0 0.00 0.00 0.00 61 1013.2
20260903222716 94 158 4.0 5.0 0.00 0.00 0.00 61 1013.3
20260903221717 95 158 4.0 7.0 0.00 0.00 0.00 60 1013.5
20260903220716 95 180 4.0 6.0 0.00 0.00 0.00 59 1013.7
20260903215717 96 225 3.0 4.0 0.00 0.00 0.00 59 1013.8
20260903214837 95 135 3.0 4.0 0.00 0.00 0.00 57 1013.8
20260903213716 95 135 4.0 6.0 0.00 0.00 0.00 57 1013.8
20260903212736 95 158 5.0 7.0 0.00 0.00 0.00 58 1013.8
20260903211716 96 180 4.0 6.0 0.00 0.00 0.00 57 1014.0
20260903210716 95 113 2.0 3.0 0.00 0.00 0.00 58 1014.0
20260903205716 96 158 5.0 6.0 0.00 0.00 0.00 57 1014.0
20260903204716 95 158 2.0 4.0 0.00 0.00 0.00 58 1014.1
20260903203736 96 158 5.0 7.0 0.00 0.00 0.00 57 1014.1
20260903202716 96 158 3.0 5.0 0.00 0.00 0.00 57 1014.2
20260903201716 96 158 3.0 4.0 0.00 0.00 0.00 58 1014.1
20260903200716 95 180 3.0 4.0 0.00 0.00 0.00 58 1014.1
20260903195716 95 180 3.0 4.0 0.00 0.00 0.00 58 1014.3
20260903194716 94 180 5.0 9.0 0.00 0.00 0.00 58 1014.3
20260903193716 94 180 4.0 6.0 0.00 0.00 0.00 61 1014.3
20260903192716 94 225 1.0 2.0 0.00 0.00 0.00 62 1014.3
20260903191736 94 158 4.0 6.0 0.00 0.00 0.00 60 1014.4
20260903190716 94 158 4.0 6.0 0.00 0.00 0.00 59 1014.5
20260903185716 94 203 1.0 2.0 0.00 0.00 0.00 61 1014.6
20260903184716 94 225 2.0 3.0 0.00 0.00 0.00 61 1014.5
20260903183736 94 158 6.0 10.0 0.00 0.00 0.00 60 1014.7
20260903182716 94 225 3.0 4.0 0.00 0.00 0.00 60 1014.9
20260903181716 93 158 2.0 3.0 0.00 0.00 0.00 62 1014.9
20260903180816 93 203 3.0 5.0 0.00 0.00 0.00 63 1014.9
20260903175716 93 203 2.0 4.0 0.00 0.00 0.00 65 1015.0
20260903174756 92 158 6.0 8.0 0.00 0.00 0.00 64 1015.1
20260903171716 91 225 2.0 3.0 0.00 0.00 0.00 64 1015.2
20260903170716 90 180 4.0 7.0 0.00 0.00 0.00 65 1015.2
20260903165716 89 203 3.0 5.0 0.00 0.00 0.00 69 1015.2
20260903164716 88 180 2.0 4.0 0.00 0.00 0.00 69 1015.2
20260903163716 88 270 1.0 3.0 0.00 0.00 0.00 69 1015.3
20260903162716 87 203 3.0 5.0 0.00 0.00 0.00 69 1015.5
20260903161719 87 180 3.0 5.0 0.00 0.00 0.00 71 1015.6
20260903160716 86 203 2.0 2.0 0.00 0.00 0.00 71 1015.5
20260903155716 86 203 4.0 6.0 0.00 0.00 0.00 70 1015.6
20260903154715 86 225 4.0 6.0 0.00 0.00 0.00 70 1015.6
20260903153756 86 225 5.0 7.0 0.00 0.00 0.00 70 1015.6
20260903152715 86 225 2.0 3.0 0.00 0.00 0.00 70 1015.6
20260903151715 86 203 6.0 9.0 0.00 0.00 0.00 70 1015.5
20260903150755 85 270 4.0 8.0 0.00 0.00 0.00 71 1015.4
20260903145716 84 203 3.0 5.0 0.00 0.00 0.00 72 1015.3
20260903144715 84 203 6.0 12.0 0.00 0.00 0.00 73 1015.2
20260903143716 83 225 6.0 8.0 0.00 0.00 0.00 73 1015.1
20260903142715 83 203 2.0 6.0 0.00 0.00 0.00 75 1015.2
20260903141715 82 180 3.0 5.0 0.00 0.00 0.00 75 1015.1
20260903140715 82 225 6.0 13.0 0.00 0.00 0.00 75 1015.1
20260903135735 81 180 5.0 9.0 0.00 0.00 0.00 76 1015.1
20260903134715 81 203 7.0 14.0 0.00 0.00 0.00 76 1015.2
20260903133736 80 203 6.0 10.0 0.00 0.00 0.00 76 1015.2
20260903132715 80 203 6.0 8.0 0.00 0.00 0.00 77 1015.2
20260903131715 80 180 5.0 7.0 0.00 0.00 0.00 77 1015.2
20260903130715 79 203 4.0 9.0 0.00 0.00 0.00 78 1015.1
20260903125757 78 158 7.0 12.0 0.00 0.00 0.00 79 1015.1
20260903124738 78 158 6.0 8.0 0.00 0.00 0.00 81 1015.1
20260903123717 77 180 6.0 9.0 0.00 0.00 0.00 82 1015.1
20260903122715 76 158 4.0 6.0 0.00 0.00 0.00 82 1015.1
20260903121717 76 180 3.0 5.0 0.00 0.00 0.00 83 1015.1
20260903120717 75 158 4.0 5.0 0.00 0.00 0.00 83 1014.9
20260903115717 75 158 2.0 4.0 0.00 0.00 0.00 83 1014.8
20260903114717 75 180 2.0 5.0 0.00 0.00 0.00 83 1014.7
20260903113717 76 158 3.0 6.0 0.00 0.00 0.00 83 1014.6
20260903112717 76 158 4.0 7.0 0.00 0.00 0.00 83 1014.6
20260903111717 76 203 3.0 6.0 0.00 0.00 0.00 83 1014.5
20260903110717 76 203 2.0 5.0 0.00 0.00 0.00 83 1014.5
20260903105717 76 180 3.0 6.0 0.00 0.00 0.00 83 1014.5
20260903104718 76 203 2.0 5.0 0.00 0.00 0.00 83 1014.4
20260903103837 76 158 4.0 6.0 0.00 0.00 0.00 83 1014.4
20260903102717 75 158 3.0 5.0 0.00 0.00 0.00 83 1014.4
20260903101717 75 158 3.0 6.0 0.00 0.00 0.00 83 1014.3
20260903100737 75 158 2.0 4.0 0.00 0.00 0.00 83 1014.4
20260903095717 76 180 2.0 3.0 0.00 0.00 0.00 83 1014.4